Location: Clanezzo
(45.7500°N, 9.6000°E)
Time: 10:06:42
(UTC+00:00)

CUTE-I - Pass Details

Date: 12 December 2023
Orbit: 807 x 822 km, 98.7° (Epoch: 23 February)

Event Time Altitude Azimuth Distance (km) Brightness Sun altitude
Rises 05:59:35 0° 12° (NNE) 3,366 ? -9.0°
Reaches altitude 10° 06:01:56 10° 11° (NNE) 2,431 ? -8.6°
Maximum altitude 06:07:19 77° 287° (WNW) 849 ? -7.8°
Drops below altitude 10° 06:12:40 10° 202° (SSW) 2,416 ? -6.9°
Sets 06:15:00 0° 201° (SSW) 3,344 ? -6.6°
